Hovedside
METAR-TAF:

METAR-TAF

Lufthavner :

Hemavan flyplass

Hemavan, Sverige

breddegrad: 65-48-22N, lengdegrad: 015-04-58E, høyde over havet: 458 m

Gjeldene værobservasjon

Denne rapporten ble laget for 24 minutter siden, klokken 03:50 UTC
Vind 4 kt fra Sørøst
Temperatur -3°C
Luftfuktighet 100%
Trykk 1000 hPa
Sikt: 2500 m
lett snø

METAR: ESUT 200350Z AUTO 13004KT 2500 -SN SCT006/// BKN009/// M03/M03 Q1000

Tid: 05:14 (04:14 UTC)


TAF: fraværende

Værobservasjoner og værvarsel for over 4000 flyplasser (METAR- og TAF-rapporter).

Tilgjengelige stasjoner er representert av de røde og gule prikkene på kartet.

Hold musepekeren over prikken for å se navnet på stasjonen.

Klikk så for å se værobservasjoner og -varsler.

For å forandre kartet kan du klikke på den grønne knappen med svart kryss for å zoome inn, på den grønne knappen med strek for å zoome ut, eller på de grønne pilene for å se tilstøtende kart.


METAR-TAF: